Location: Newark
(49.8969°N, 3.3422°E)
Time: 13:14:44
(UTC+00:00)

Vanguard 1 Rocket - Pass Details

Date: 28 January 2020
Orbit: 650 x 4226 km, 34.3° (Epoch: 24 February)

Event Time Altitude Azimuth Distance (km) Brightness Sun altitude
Rises 15:57:10 0° 268° (W) 6,258 12.8 4.1°
Reaches altitude 10° 16:03:24 10° 250° (WSW) 5,897 13.5 3.3°
Maximum altitude 16:13:12 16° 219° (SW) 6,142 13.1 2.0°
Drops below altitude 10° 16:25:10 10° 189° (S) 7,284 12.6 0.3°
Sets 16:35:03 0° 173° (S) 8,460 12.6 -1.1°
